Regional Weather Roundup
Issued by NWS

Home | Current Version | Previous Version | Text Only | Print | Product List | Glossary Off
Versions: 1 2 3 4 5 6 7 8 9 10 11 12 13 14 15 16 17 18 19 20 21 22 23 24 25 26 27 28 29 30 31 32 33 34 35 36 37 38 39 40 41 42 43 44 45 46 47 48 49 50

000
ASUS43 KLSX 221959
RWRMO

WEATHER SUMMARY FOR MISSOURI
NATIONAL WEATHER SERVICE SPRINGFIELD MO
300 PM CDT SAT APR 22 2017

NOTE: "FAIR" INDICATES FEW OR NO CLOUDS BELOW 12,000 FEET WITH NO
       SIGNIFICANT WEATHER AND/OR OBSTRUCTIONS TO VISIBILITY.
       CURRENT SKY AND/OR WEATHER CONDITIONS ARE NOT AVAILABLE FOR
       CHILLICOTHE AND FARMINGTON.

MOZ001>031-035>038-043-044-053-054-222100-
...NORTHERN AND WESTERN MISSOURI...

CITY           SKY/WX    TMP DP  RH WIND       PRES   REMARKS
KANSAS CTY INT MOSUNNY   65  33  30 NE18G28   30.12F
KANSAS C DTWN  SUNNY     67  30  25 NE21G30   30.10F
LEE`S SUMMIT   CLOUDY    65  29  25 NE21G30   30.10F
ST JOSEPH      PTSUNNY   64  36  35 N20G28    30.16F
CHILLICOTHE      N/A     65  27  23 N15G24    30.14F
KIRKSVILLE     SUNNY     64  35  34 NE18G24   30.13F

$$
MOZ066>068-077>081-088>096-101>105-222100-
...SOUTHWEST MISSOURI...

CITY           SKY/WX    TMP DP  RH WIND       PRES   REMARKS
SPRINGFIELD    CLOUDY    49  44  83 NE14      30.05S
JOPLIN         CLOUDY    49  43  80 N12       30.10R
BRANSON        LGT RAIN  46  46 100 N10       30.04R VSB 1

$$
MOZ032>034-039>042-045>050-055>058-069>072-222100-
...CENTRAL MISSOURI...

CITY           SKY/WX    TMP DP  RH WIND       PRES   REMARKS
COLUMBIA       SUNNY     61  38  42 NE18G26   30.08F
JEFFERSON CITY MOSUNNY   62  38  40 N12G22    30.07F
ROLLA          CLOUDY    50  42  74 N17       30.05S
OSAGE BEACH    CLOUDY    54  40  59 NE9G17    30.07F

$$
MOZ051-052-059>065-222100-
...EAST CENTRAL MISSOURI...

CITY           SKY/WX    TMP DP  RH WIND       PRES   REMARKS
ST LOUIS INTL  CLOUDY    58  39  49 NE18G26   30.07S
SPIRIT OF STL  PTSUNNY   58  41  53 NE17G26   30.06F
ST CHARLES     CLOUDY    59  39  47 NE16G29   30.07F

$$
MOZ072>076-082>087-097>100-106>115-222100-
...SOUTH CENTRAL AND SOUTHEAST MISSOURI...

CITY           SKY/WX    TMP DP  RH WIND       PRES   REMARKS
CAPE GIRARDEAU CLOUDY    51  47  86 N14       29.97F
FARMINGTON     LGT RAIN  49  46  90 N10       30.02F
POPLAR BLUFF   CLOUDY    52  48  86 NE13      29.96S
WEST PLAINS    CLOUDY    49  46  90 NE12G21   30.01S FOG

$$




USA.gov is the U.S. government's official web portal to all federal, state and local government web resources and services.